User: anonymous   Login
Location: Unspecified
(0.0000°N, 0.0000°E)
Time: 06:45:29
(UTC+00:00)
Language:

STARLINK-35976 - Orbit

View from above orbital plane
View from above orbital plane
View from above satellite
View from above satellite

Ground track
Ground track

The orbit is defined by the following mean orbital elements,

1 66534U          26145.48226061 +.00000000 +00000-0 +23554-3 0 00006
2 66534  43.0036 204.6143 0001466 267.3738  92.6946 15.27580386    06
Epoch (UTC): 25 May 2026 11:34:27
Eccentricity: 0.0001466
inclination: 43.0036°
perigee height: 482 km
apogee height: 484 km
right ascension of ascending node: 204.6143°
argument of perigee: 267.3738°
revolutions per day: 15.27580386
mean anomaly at epoch: 92.6946°

The dashed part of the orbit path shows where the satellite is in the earth's shadow,  

DLR